This is the latest recevied weather packets stored in our database for station/object K4CRS-13. If no packets are shown the sender has not sent any weather packets the latest 10 day(s).
| Time | Temp. | Humidity | Pressure | Rain* | Wind** | Luminosity | Snow |
|---|---|---|---|---|---|---|---|
| 1777756920 | 18.33° C | 39% | 1050.8 hPa | 0 mm | - | 94 W/m² | - |
| 1777756616 | 19.44° C | 41% | 1050.9 hPa | 0 mm | - | 108 W/m² | - |
| 1777756313 | 18.89° C | 39% | 1050.6 hPa | 0 mm | - | 535 W/m² | - |
| 1777756010 | 18.33° C | 39% | 1051 hPa | 0 mm | - | 184 W/m² | - |
| 1777755707 | 18.33° C | 41% | 1050.8 hPa | 0 mm | - | 155 W/m² | - |
| 1777755404 | 18.33° C | 44% | 1051 hPa | 0 mm | - | 164 W/m² | - |
| 1777755100 | 18.33° C | 41% | 1051 hPa | 0 mm | - | 185 W/m² | - |
| 1777754797 | 18.33° C | 40% | 1051.3 hPa | 0 mm | - | 653 W/m² | - |
| 1777754495 | 18.89° C | 41% | 1051 hPa | 0 mm | - | 176 W/m² | - |
| 1777754192 | 18.89° C | 39% | 1051.2 hPa | 0 mm | - | 185 W/m² | - |
| 1777753890 | 20° C | 40% | 1051 hPa | 0 mm | - | 163 W/m² | - |
| 1777753585 | 19.44° C | 39% | 1050.9 hPa | 0 mm | - | 719 W/m² | - |
| 1777753283 | 19.44° C | 39% | 1051.1 hPa | 0 mm | - | 690 W/m² | - |
| 1777752979 | 19.44° C | 39% | 1051.4 hPa | 0 mm | - | 136 W/m² | - |
| 1777752676 | 20° C | 40% | 1051.1 hPa | 0 mm | - | 746 W/m² | - |
| 1777752372 | 20° C | 36% | 1051.4 hPa | 0 mm | - | 802 W/m² | - |
| 1777752070 | 20° C | 36% | 1051.3 hPa | 0 mm | - | 833 W/m² | - |
| 1777751768 | 19.44° C | 37% | 1051.5 hPa | 0 mm | - | 747 W/m² | - |
| 1777751463 | 19.44° C | 38% | 1051.3 hPa | 0 mm | - | 796 W/m² | - |
| 1777751160 | 19.44° C | 36% | 1051.5 hPa | 0 mm | - | 166 W/m² | - |
| 1777750856 | 19.44° C | 39% | 1051.7 hPa | 0 mm | - | 787 W/m² | - |
| 1777750553 | 18.89° C | 38% | 1051.5 hPa | 0 mm | - | 822 W/m² | - |
| 1777750250 | 19.44° C | 39% | 1051.8 hPa | 0 mm | - | 272 W/m² | - |
| 1777749945 | 18.33° C | 36% | 1051.5 hPa | 0 mm | - | 813 W/m² | - |
| 1777749644 | 19.44° C | 33% | 1051.4 hPa | 0 mm | - | 140 W/m² | - |
* Rain latest hour (hover to see other rain measurements)
** Current wind speed in m/s (hover to see current wind gust speed)